Retour au catalogue

ONEWEB-0336

ActifCommunicationsPO
NORAD 49202·PAYLOAD·🇬🇧 United Kingdom

Lancé Sep 14, 2021 depuis Baikonur Cosmodrome

Loading…

Prochains Passages (prochaines 24 heures)

TLE

FraisSource: CelesTrak SupGP

Époque: Sep 15, 2026, 01:51 UTC

1 49202C 21083S   26258.07759676  .00000951  00000+0  26072-2 0  2582
2 49202  87.8914 302.3418 0002002 106.4254 279.9356 13.13467046    10

Suivez ONEWEB-0336 en temps réel avec AllMySat

Download on the App Store